TimeCDT,TemperatureF,Dew PointF,Humidity,Sea Level PressureIn,VisibilityMPH,Wind Direction,Wind SpeedMPH,Gust SpeedMPH,PrecipitationIn,Events,Conditions,WindDirDegrees,DateUTC
12:15 AM,55.6,55.0,98,30.22,7.0,Calm,Calm,-,N/A,,Clear,0,2012-10-04 05:15:00
12:35 AM,55.9,55.4,98,30.23,7.0,Calm,Calm,-,N/A,,Clear,0,2012-10-04 05:35:00
12:55 AM,55.6,55.0,98,30.23,5.0,Calm,Calm,-,N/A,,Clear,0,2012-10-04 05:55:00
1:15 AM,55.6,55.0,98,30.23,7.0,Calm,Calm,-,N/A,,Clear,0,2012-10-04 06:15:00
1:35 AM,55.6,54.9,97,30.23,7.0,Calm,Calm,-,N/A,,Clear,0,2012-10-04 06:35:00
1:55 AM,55.2,54.3,97,30.23,7.0,NNE,3.5,-,N/A,,Clear,20,2012-10-04 06:55:00
2:15 AM,54.7,54.1,98,30.23,7.0,Calm,Calm,-,N/A,,Clear,0,2012-10-04 07:15:00
2:35 AM,54.9,54.0,97,30.23,7.0,Calm,Calm,-,N/A,,Clear,0,2012-10-04 07:35:00
2:55 AM,54.1,53.8,99,30.24,7.0,Calm,Calm,-,N/A,,Clear,0,2012-10-04 07:55:00
3:15 AM,54.0,53.6,99,30.23,7.0,Calm,Calm,-,N/A,,Clear,0,2012-10-04 08:15:00
3:35 AM,54.1,53.6,98,30.23,7.0,Calm,Calm,-,N/A,,Clear,0,2012-10-04 08:35:00
3:55 AM,54.0,53.2,97,30.24,7.0,Calm,Calm,-,N/A,,Clear,0,2012-10-04 08:55:00
4:15 AM,53.8,53.2,98,30.24,7.0,Calm,Calm,-,N/A,,Clear,0,2012-10-04 09:15:00
4:35 AM,53.6,53.1,98,30.25,7.0,Calm,Calm,-,N/A,,Clear,0,2012-10-04 09:35:00
4:55 AM,53.4,53.1,99,30.26,7.0,Calm,Calm,-,N/A,,Clear,0,2012-10-04 09:55:00
5:15 AM,52.9,52.5,99,30.27,7.0,NE,3.5,-,N/A,,Clear,40,2012-10-04 10:15:00
5:35 AM,52.9,52.5,99,30.27,7.0,Calm,Calm,-,N/A,,Clear,0,2012-10-04 10:35:00
5:55 AM,53.2,52.9,99,30.28,7.0,Calm,Calm,-,N/A,,Clear,0,2012-10-04 10:55:00
6:15 AM,53.2,52.7,98,30.28,5.0,Calm,Calm,-,N/A,,Clear,0,2012-10-04 11:15:00
6:35 AM,52.7,52.2,98,30.28,5.0,Calm,Calm,-,N/A,,Clear,0,2012-10-04 11:35:00
6:55 AM,52.5,52.2,99,30.29,4.0,Calm,Calm,-,N/A,,Clear,0,2012-10-04 11:55:00
7:15 AM,52.7,52.3,99,30.30,5.0,Calm,Calm,-,N/A,,Clear,0,2012-10-04 12:15:00
7:35 AM,53.8,53.2,98,30.30,7.0,Calm,Calm,-,N/A,,Clear,0,2012-10-04 12:35:00
7:55 AM,56.1,54.9,96,30.30,7.0,Calm,Calm,-,N/A,,Clear,0,2012-10-04 12:55:00
8:15 AM,59.2,57.2,93,30.30,10.0,Calm,Calm,-,N/A,,Clear,0,2012-10-04 13:15:00
8:35 AM,62.1,58.5,88,30.31,10.0,Calm,Calm,-,N/A,,Clear,0,2012-10-04 13:35:00
8:55 AM,64.4,59.0,83,30.31,10.0,Calm,Calm,-,N/A,,Clear,0,2012-10-04 13:55:00
9:15 AM,66.4,58.8,77,30.31,10.0,Calm,Calm,-,N/A,,Clear,0,2012-10-04 14:15:00
9:35 AM,67.6,59.4,75,30.31,10.0,Calm,Calm,-,N/A,,Clear,0,2012-10-04 14:35:00
10:15 AM,70.3,58.8,67,30.32,10.0,Calm,Calm,-,N/A,,Clear,0,2012-10-04 15:15:00
10:35 AM,71.8,59.2,64,30.32,10.0,West,3.5,-,N/A,,Clear,280,2012-10-04 15:35:00
10:55 AM,73.0,58.8,61,30.32,10.0,South,3.5,-,N/A,,Clear,190,2012-10-04 15:55:00
11:35 AM,74.3,59.4,60,30.31,10.0,Calm,Calm,-,N/A,,Scattered Clouds,0,2012-10-04 16:35:00
11:55 AM,74.7,59.4,59,30.31,10.0,Calm,Calm,-,N/A,,Scattered Clouds,0,2012-10-04 16:55:00
12:15 PM,74.3,59.4,60,30.31,10.0,Calm,Calm,-,N/A,,Scattered Clouds,0,2012-10-04 17:15:00
12:35 PM,75.6,59.5,57,30.30,10.0,Calm,Calm,-,N/A,,Scattered Clouds,0,2012-10-04 17:35:00
12:55 PM,76.3,59.4,56,30.29,10.0,Calm,Calm,-,N/A,,Scattered Clouds,0,2012-10-04 17:55:00
1:15 PM,75.7,59.2,56,30.28,10.0,WNW,4.6,-,N/A,,Scattered Clouds,290,2012-10-04 18:15:00
1:35 PM,77.7,59.5,53,30.28,10.0,WNW,3.5,-,N/A,,Scattered Clouds,290,2012-10-04 18:35:00
1:55 PM,75.9,60.4,59,30.27,10.0,Calm,Calm,-,N/A,,Scattered Clouds,0,2012-10-04 18:55:00
2:15 PM,76.8,58.6,53,30.26,10.0,West,3.5,-,N/A,,Clear,280,2012-10-04 19:15:00
2:35 PM,77.0,58.5,53,30.26,10.0,Calm,Calm,-,N/A,,Clear,0,2012-10-04 19:35:00
2:55 PM,78.1,57.9,50,30.25,10.0,WNW,3.5,-,N/A,,Clear,290,2012-10-04 19:55:00
3:15 PM,77.9,58.3,51,30.26,10.0,NW,3.5,-,N/A,,Clear,310,2012-10-04 20:15:00
3:35 PM,78.3,57.6,49,30.25,10.0,Calm,Calm,-,N/A,,Clear,0,2012-10-04 20:35:00
3:55 PM,78.3,57.0,48,30.25,10.0,Calm,Calm,-,N/A,,Clear,0,2012-10-04 20:55:00
4:15 PM,77.4,57.4,50,30.25,10.0,Calm,Calm,-,N/A,,Clear,0,2012-10-04 21:15:00
4:35 PM,78.3,56.1,46,30.24,10.0,Calm,Calm,-,N/A,,Clear,0,2012-10-04 21:35:00
4:55 PM,78.4,57.2,48,30.24,10.0,Calm,Calm,-,N/A,,Clear,0,2012-10-04 21:55:00
5:15 PM,78.4,57.7,49,30.24,10.0,Calm,Calm,-,N/A,,Clear,0,2012-10-04 22:15:00
5:35 PM,76.1,60.4,58,30.24,10.0,Calm,Calm,-,N/A,,Clear,0,2012-10-04 22:35:00
5:55 PM,73.6,63.1,70,30.23,10.0,Calm,Calm,-,N/A,,Clear,0,2012-10-04 22:55:00
6:15 PM,70.0,63.3,79,30.23,10.0,Calm,Calm,-,N/A,,Clear,0,2012-10-04 23:15:00
6:35 PM,66.4,62.6,88,30.23,10.0,Calm,Calm,-,N/A,,Clear,0,2012-10-04 23:35:00
6:55 PM,64.4,61.7,91,30.23,10.0,Calm,Calm,-,N/A,,Clear,0,2012-10-04 23:55:00
7:15 PM,63.0,61.0,93,30.24,10.0,Calm,Calm,-,N/A,,Clear,0,2012-10-05 00:15:00
7:35 PM,62.1,60.8,96,30.24,10.0,Calm,Calm,-,N/A,,Clear,0,2012-10-05 00:35:00
8:15 PM,60.8,59.9,97,30.24,10.0,Calm,Calm,-,N/A,,Clear,0,2012-10-05 01:15:00
8:35 PM,60.4,59.4,96,30.24,10.0,NNE,3.5,-,N/A,,Clear,30,2012-10-05 01:35:00
8:55 PM,60.1,59.2,97,30.24,7.0,Calm,Calm,-,N/A,,Clear,0,2012-10-05 01:55:00
9:15 PM,60.1,59.0,96,30.25,7.0,Calm,Calm,-,N/A,,Clear,0,2012-10-05 02:15:00
9:35 PM,59.4,58.6,97,30.25,7.0,Calm,Calm,-,N/A,,Clear,0,2012-10-05 02:35:00
9:55 PM,59.0,58.3,97,30.26,7.0,Calm,Calm,-,N/A,,Clear,0,2012-10-05 02:55:00
10:15 PM,58.6,57.9,97,30.26,7.0,Calm,Calm,-,N/A,,Clear,0,2012-10-05 03:15:00
10:35 PM,58.3,57.7,98,30.26,7.0,Calm,Calm,-,N/A,,Clear,0,2012-10-05 03:35:00
10:55 PM,58.1,57.6,98,30.25,7.0,Calm,Calm,-,N/A,,Clear,0,2012-10-05 03:55:00
11:15 PM,57.4,56.8,98,30.25,5.0,Calm,Calm,-,N/A,,Clear,0,2012-10-05 04:15:00
11:35 PM,57.4,57.0,99,30.25,7.0,Calm,Calm,-,N/A,,Clear,0,2012-10-05 04:35:00
11:55 PM,56.8,56.5,99,30.25,3.0,Calm,Calm,-,N/A,,Clear,0,2012-10-05 04:55:00